Home   Weather   Gifhorn   Past weeks

Flag for Germany Past Weather in Gifhorn, Lower Saxony, Germany — Yesterday and Last 2 Weeks

Now
46 °F

Sunny.


Feels Like: 42 °F
Forecast: 39 / 46 °F
Wind: 9 mph from Southwest

Location: Braunschweig Wolfsburg

Current Time: Dec 8, 2016 at 1:03:20 pm

Latest Report: Dec 8, 2016 at 12:20 pm


Visibility: 10 mi

Pressure: 30.30 "Hg

Humidity: 62%

Dew Point: 34 °F

Location of GifhornLocation

Past Weather in Gifhorn — Graph

°F

Gifhorn Temperature Yesterday

Maximum temperature yesterday: 43 °F (at 9:20 pm)
Minimum temperature yesterday: 25 °F (at 6:50 am)
Average temperature yesterday: 36 °F

High & Low Weather Summary for the Past Weeks

 TemperatureHumidityPressure
High55 °F (Nov 23, 1:50 pm)100% (Nov 23, 6:50 pm)30.57 "Hg (Nov 23, 6:50 pm)
Low19 °F (Nov 29, 7:20 am)52% (Dec 5, 1:50 pm)29.95 "Hg (Dec 1, 9:50 pm)
Average36 °F83%30.29 "Hg
* Reported Nov 23 11:20 am — Dec 8 11:50 am, Gifhorn, Weather by CustomWeather, © 2016

Note: Actual official high and low records may vary slightly from our data, if they occured in-between our weather recording intervals... More about our weather records

Advertising

Gifhorn Weather History for the Previous 24 Hours

Scroll right to see more
 ConditionsComfort  
Time TempWeatherWind HumidityBarometerVisibility
11:50 am
Thu, Dec 8
46 °FSunny.8 mph62%30.30 "Hg10 mi
11:20 am45 °FSunny.9 mph66%30.30 "Hg10 mi
10:50 am45 °FSunny.13 mph66%30.30 "Hg10 mi
10:20 am43 °FSunny.14 mph71%30.30 "Hg10 mi
9:50 am43 °FSunny.13 mph71%30.30 "Hg10 mi
9:20 am43 °FSunny.13 mph71%30.33 "Hg10 mi
8:50 am43 °FSunny.10 mph71%30.33 "Hg10 mi
8:20 am41 °FSunny.12 mph76%30.33 "Hg10 mi
7:50 am41 °FClear.12 mph70%30.33 "Hg10 mi
7:20 am41 °FClear.12 mph70%30.33 "Hg10 mi
6:50 am41 °FClear.13 mph76%30.33 "Hg10 mi
5:50 am41 °FClear.13 mph70%30.33 "Hg10 mi
9:50 pm
Wed, Dec 7
41 °FClear.12 mph76%30.36 "Hg10 mi
9:20 pm43 °FClear.10 mph71%30.36 "Hg10 mi
8:20 pm41 °FClear.13 mph76%30.39 "Hg10 mi
7:50 pm41 °FClear.14 mph76%30.36 "Hg10 mi
7:20 pm41 °FClear.15 mph81%30.36 "HgN/A
6:50 pm41 °FClear.13 mph76%30.36 "HgN/A
6:20 pm41 °FClear.12 mph76%30.36 "Hg10 mi
5:50 pm39 °FClear.14 mph81%30.39 "Hg10 mi
5:20 pm39 °FClear.14 mph81%30.39 "Hg10 mi
4:50 pm39 °FClear.9 mph75%30.39 "HgN/A
4:20 pm39 °FClear.14 mph75%30.39 "Hg10 mi
3:50 pm39 °FSunny.13 mph75%30.39 "Hg10 mi
3:20 pm39 °FSunny.12 mph75%30.39 "Hg10 mi
2:50 pm39 °FSunny.10 mph75%30.39 "Hg10 mi
2:20 pm39 °FSunny.6 mph75%30.39 "Hg10 mi
1:50 pm41 °FSunny.8 mph70%30.39 "Hg10 mi
1:20 pm39 °FPartly sunny.6 mph75%30.39 "HgN/A
Weather by CustomWeather, © 2016

See weather overviewHow to use our weather pages